Terug naar catalogus

CZ-4 DEB

ActiefSSO
NORAD 26203·DEBRIS·🇨🇳 China

Gelanceerd Oct 14, 1999 vanaf Taiyuan Satellite Launch Center

Loading…

Volgende Passages (komende 24 uur)

TLE

VersSource: Space-Track

Epoch: Sep 14, 2026, 08:04 UTC

1 26203U 99057CR  26257.33624324  .00000285  00000-0  11036-3 0  9991
2 26203  98.3550  27.6588 0108816  57.5051 331.4026 14.33769620381730

Volg CZ-4 DEB in realtime met AllMySat

Download on the App Store